EW9092 Weather Reports


Display with metric or nautical units.
time (UTC)temp
F
wind
direction
speed
MPH
gust
MPH
rain 1hr
in
rain 24hr
in
rain mn
in
humidity
%
barometer
mb
20240527063836 72 143 0.0 1.0 0.00 0.00 0.00 22 1014.1
20240527063330 73 143 0.0 1.0 0.00 0.00 0.00 22 1014.2
20240527063052 73 143 0.0 1.0 0.00 0.00 0.00 22 1014.2
20240527062321 73 141 0.0 1.0 0.00 0.00 0.00 22 1014.2
20240527061817 74 141 0.0 1.0 0.00 0.00 0.00 22 1014.2
20240527061317 74 117 0.0 1.0 0.00 0.00 0.00 22 1014.4
20240527060817 74 143 0.0 1.0 0.00 0.00 0.00 21 1014.5
20240527060315 74 160 0.0 1.0 0.00 0.00 0.00 22 1014.5
20240527055814 75 160 1.0 3.0 0.00 0.00 0.00 21 1014.5
20240527055314 75 145 1.0 3.0 0.00 0.00 0.00 21 1014.5
20240527054812 75 131 0.0 1.0 0.00 0.00 0.00 21 1014.5
20240527054319 75 120 0.0 1.0 0.00 0.00 0.00 22 1014.5
20240527053812 75 121 0.0 1.0 0.00 0.00 0.00 22 1014.5
20240527053312 76 54 0.0 1.0 0.00 0.00 0.00 21 1014.5
20240527053032 75 57 0.0 2.0 0.00 0.00 0.00 21 1014.5
20240527052312 76 32 0.0 2.0 0.00 0.00 0.00 21 1014.5
20240527051808 76 127 0.0 0.0 0.00 0.00 0.00 20 1014.4
20240527051307 77 127 0.0 0.0 0.00 0.00 0.00 20 1014.4
20240527051029 77 127 0.0 0.0 0.00 0.00 0.00 20 1014.4
20240527050255 77 127 0.0 0.0 0.00 0.00 0.00 20 1014.4
20240527045750 77 127 0.0 0.0 0.00 0.00 0.00 20 1014.4
20240527045514 78 127 0.0 0.0 0.00 0.00 0.00 19 1014.2
20240527044750 78 127 0.0 0.0 0.00 0.00 0.00 19 1014.1
20240527044509 79 127 0.0 0.0 0.00 0.00 0.00 19 1014.1
20240527043750 79 226 0.0 0.0 0.00 0.00 0.00 18 1014.0
20240527043248 79 226 0.0 0.0 0.00 0.00 0.00 18 1014.1
20240527042746 80 227 0.0 0.0 0.00 0.00 0.00 17 1014.0
20240527042503 80 226 0.0 0.0 0.00 0.00 0.00 17 1013.9
20240527041744 80 226 0.0 0.0 0.00 0.00 0.00 17 1013.8
20240527041244 80 227 0.0 0.0 0.00 0.00 0.00 17 1013.7
20240527040739 81 226 0.0 0.0 0.00 0.00 0.00 17 1013.7
20240527040240 81 248 0.0 0.0 0.00 0.00 0.00 16 1013.6
20240527035736 82 254 0.0 1.0 0.00 0.00 0.00 16 1013.6
20240527035236 82 265 0.0 2.0 0.00 0.00 0.00 15 1013.6
20240527034737 83 265 0.0 2.0 0.00 0.00 0.00 15 1013.5
20240527034503 83 275 0.0 2.0 0.00 0.00 0.00 15 1013.5
20240527033734 83 254 1.0 2.0 0.00 0.00 0.00 15 1013.5
20240527033233 84 270 1.0 3.0 0.00 0.00 0.00 14 1013.4
20240527032732 84 241 1.0 4.0 0.00 0.00 0.00 14 1013.3
20240527032232 85 270 2.0 4.0 0.00 0.00 0.00 14 1013.3
20240527031732 85 274 2.0 4.0 0.00 0.00 0.00 13 1013.3
20240527031333 85 268 2.0 5.0 0.00 0.00 0.00 13 1013.2
20240527030235 86 253 2.0 5.0 0.00 0.00 0.00 13 1013.2
20240527025735 86 294 2.0 4.0 0.00 0.00 0.00 13 1013.1
20240527025235 86 271 2.0 4.0 0.00 0.00 0.00 13 1013.1
20240527024733 87 283 2.0 4.0 0.00 0.00 0.00 12 1013.1
20240527024325 87 283 2.0 5.0 0.00 0.00 0.00 12 1012.9
20240527023230 87 285 3.0 7.0 0.00 0.00 0.00 12 1012.8
20240527022732 88 269 2.0 7.0 0.00 0.00 0.00 12 1012.8
20240527022230 88 283 2.0 5.0 0.00 0.00 0.00 11 1012.7
20240527021730 89 245 2.0 7.0 0.00 0.00 0.00 11 1012.7
20240527021230 89 296 3.0 7.0 0.00 0.00 0.00 11 1012.6
20240527020729 90 293 3.0 5.0 0.00 0.00 0.00 11 1012.5
20240527020232 90 284 2.0 6.0 0.00 0.00 0.00 11 1012.5
20240527015727 90 328 2.0 7.0 0.00 0.00 0.00 11 1012.4
20240527015226 91 304 1.0 7.0 0.00 0.00 0.00 10 1012.4
20240527014956 92 283 1.0 6.0 0.00 0.00 0.00 10 1012.3
20240527014225 92 272 2.0 6.0 0.00 0.00 0.00 10 1012.3
20240527013726 92 307 2.0 6.0 0.00 0.00 0.00 10 1012.3
20240527013227 92 263 2.0 7.0 0.00 0.00 0.00 10 1012.2
20240527012727 92 358 2.0 7.0 0.00 0.00 0.00 10 1012.3
20240527012226 93 273 2.0 5.0 0.00 0.00 0.00 10 1012.2
20240527011726 93 289 2.0 5.0 0.00 0.00 0.00 10 1012.2
20240527011226 93 283 2.0 5.0 0.00 0.00 0.00 10 1012.2
20240527010727 92 281 2.0 5.0 0.00 0.00 0.00 10 1012.2
20240527010227 93 311 2.0 4.0 0.00 0.00 0.00 10 1012.3
20240527005952 93 263 2.0 6.0 0.00 0.00 0.00 9 1012.3
20240527005717 93 324 3.0 8.0 0.00 0.00 0.00 10 1012.2
20240527004726 93 321 3.0 8.0 0.00 0.00 0.00 10 1012.2
20240527004226 93 294 2.0 8.0 0.00 0.00 0.00 9 1012.2
20240527003947 93 307 2.0 7.0 0.00 0.00 0.00 9 1012.2
20240527003226 93 277 2.0 7.0 0.00 0.00 0.00 9 1012.2
20240527002725 94 264 2.0 5.0 0.00 0.00 0.00 9 1012.2
20240527002225 93 306 3.0 7.0 0.00 0.00 0.00 9 1012.2
20240527001943 93 272 4.0 13.0 0.00 0.00 0.00 9 1012.2
20240527001225 93 314 4.0 13.0 0.00 0.00 0.00 9 1012.2
20240527000719 93 314 4.0 10.0 0.00 0.00 0.00 9 1012.2
20240527000219 93 22 4.0 10.0 0.00 0.00 0.00 9 1012.2
20240526235719 94 337 3.0 6.0 0.00 0.00 0.00 9 1012.3
20240526235220 94 333 3.0 9.0 0.00 0.00 0.00 9 1012.3
20240526234717 94 255 3.0 9.0 0.00 0.00 0.00 9 1012.3
20240526234219 93 104 3.0 8.0 0.00 0.00 0.00 10 1012.4
20240526233716 94 327 3.0 8.0 0.00 0.00 0.00 9 1012.4
20240526233214 94 304 4.0 8.0 0.00 0.00 0.00 9 1012.4
20240526232707 93 311 3.0 8.0 0.00 0.00 0.00 10 1012.4
20240526232203 94 20 3.0 11.0 0.00 0.00 0.00 10 1012.5
20240526231651 94 261 3.0 11.0 0.00 0.00 0.00 10 1012.6
20240526231146 94 274 3.0 7.0 0.00 0.00 0.00 10 1012.6
20240526230906 94 265 3.0 8.0 0.00 0.00 0.00 10 1012.6
20240526230131 94 54 3.0 8.0 0.00 0.00 0.00 10 1012.7
20240526225623 94 319 2.0 7.0 0.00 0.00 0.00 9 1012.7
20240526225119 94 223 3.0 8.0 0.00 0.00 0.00 9 1012.7
20240526224607 94 264 3.0 8.0 0.00 0.00 0.00 9 1012.8
20240526224102 95 283 3.0 8.0 0.00 0.00 0.00 9 1012.8
20240526223603 95 222 3.0 7.0 0.00 0.00 0.00 9 1012.9
20240526223331 95 298 2.0 6.0 0.00 0.00 0.00 8 1012.9
20240526223039 95 257 2.0 7.0 0.00 0.00 0.00 8 1013.1
20240526222059 94 304 2.0 7.0 0.00 0.00 0.00 8 1013.1
20240526221559 94 259 3.0 7.0 0.00 0.00 0.00 9 1013.2
20240526221055 94 281 3.0 7.0 0.00 0.00 0.00 8 1013.2
20240526220555 94 273 3.0 7.0 0.00 0.00 0.00 8 1013.2
20240526220056 94 268 2.0 7.0 0.00 0.00 0.00 8 1013.3
20240526215556 94 252 2.0 6.0 0.00 0.00 0.00 8 1013.3
20240526215057 94 114 3.0 8.0 0.00 0.00 0.00 8 1013.4
20240526214557 94 259 3.0 8.0 0.00 0.00 0.00 8 1013.4
20240526214057 93 233 3.0 8.0 0.00 0.00 0.00 8 1013.4
20240526213558 93 288 3.0 8.0 0.00 0.00 0.00 9 1013.5
20240526212552 92 219 3.0 8.0 0.00 0.00 0.00 8 1013.6
20240526212047 93 250 3.0 8.0 0.00 0.00 0.00 8 1013.7
20240526211536 92 220 3.0 7.0 0.00 0.00 0.00 8 1013.7
20240526211250 92 297 4.0 9.0 0.00 0.00 0.00 7 1013.7
20240526210525 93 270 3.0 9.0 0.00 0.00 0.00 8 1013.7
20240526210236 94 306 2.0 9.0 0.00 0.00 0.00 8 1013.7
20240526205509 93 218 3.0 8.0 0.00 0.00 0.00 8 1013.8
20240526205003 93 117 2.0 8.0 0.00 0.00 0.00 8 1013.8
20240526204453 94 16 1.0 4.0 0.00 0.00 0.00 8 1013.8
20240526203948 92 350 2.0 6.0 0.00 0.00 0.00 8 1013.9
20240526203442 92 281 3.0 6.0 0.00 0.00 0.00 8 1014.0
20240526202931 91 283 2.0 8.0 0.00 0.00 0.00 8 1014.0
20240526202425 92 269 3.0 8.0 0.00 0.00 0.00 8 1014.0
20240526201919 92 252 2.0 8.0 0.00 0.00 0.00 9 1014.0
20240526201409 92 75 2.0 4.0 0.00 0.00 0.00 8 1014.1
20240526201121 92 319 3.0 8.0 0.00 0.00 0.00 7 1014.2
20240526200357 92 207 3.0 8.0 0.00 0.00 0.00 8 1014.2
20240526195845 92 194 2.0 6.0 0.00 0.00 0.00 9 1014.4
20240526195340 91 228 3.0 7.0 0.00 0.00 0.00 9 1014.4
20240526194834 92 271 3.0 7.0 0.00 0.00 0.00 8 1014.5
20240526194325 91 271 2.0 7.0 0.00 0.00 0.00 9 1014.5
20240526193818 91 268 2.0 7.0 0.00 0.00 0.00 8 1014.5
20240526193313 90 263 3.0 9.0 0.00 0.00 0.00 8 1014.6
20240526193026 90 283 3.0 9.0 0.00 0.00 0.00 9 1014.6
20240526192257 90 245 3.0 7.0 0.00 0.00 0.00 10 1014.7
20240526192014 90 238 3.0 9.0 0.00 0.00 0.00 10 1014.7
20240526191241 90 281 3.0 9.0 0.00 0.00 0.00 10 1014.8
20240526191220 91 252 2.0 5.0 0.00 0.00 0.00 11 1014.8
20240526190228 92 262 1.0 4.0 0.00 0.00 0.00 11 1014.9
20240526185719 92 210 1.0 3.0 0.00 0.00 0.00 11 1014.9
20240526185213 90 84 1.0 4.0 0.00 0.00 0.00 11 1015.0
20240526184707 89 139 2.0 6.0 0.00 0.00 0.00 12 1015.1
20240526184157 89 288 2.0 6.0 0.00 0.00 0.00 11 1015.2
20240526183650 90 212 1.0 5.0 0.00 0.00 0.00 12 1015.2
20240526183145 89 139 2.0 5.0 0.00 0.00 0.00 12 1015.2
20240526182636 89 252 2.0 6.0 0.00 0.00 0.00 12 1015.2
20240526182127 89 293 2.0 6.0 0.00 0.00 0.00 13 1015.1
20240526181622 88 241 2.0 6.0 0.00 0.00 0.00 13 1015.2
20240526181338 88 193 2.0 6.0 0.00 0.00 0.00 13 1015.2
20240526180606 87 229 2.0 5.0 0.00 0.00 0.00 13 1015.2
20240526180101 87 271 2.0 5.0 0.00 0.00 0.00 13 1015.3
20240526175551 86 274 2.0 6.0 0.00 0.00 0.00 13 1015.3
20240526175045 85 263 4.0 8.0 0.00 0.00 0.00 14 1015.3
20240526174545 85 245 3.0 8.0 0.00 0.00 0.00 14 1015.3
20240526174039 85 244 2.0 7.0 0.00 0.00 0.00 15 1015.3
20240526173537 85 215 3.0 7.0 0.00 0.00 0.00 14 1015.3
20240526173259 85 250 2.0 7.0 0.00 0.00 0.00 14 1015.3
20240526172538 86 270 1.0 6.0 0.00 0.00 0.00 15 1015.3
20240526172037 84 224 2.0 6.0 0.00 0.00 0.00 15 1015.3
20240526171536 84 271 2.0 5.0 0.00 0.00 0.00 16 1015.3
20240526171036 85 244 2.0 5.0 0.00 0.00 0.00 15 1015.3
20240526170802 85 216 1.0 4.0 0.00 0.00 0.00 16 1015.4
20240526170304 86 276 0.0 2.0 0.00 0.00 0.00 16 1015.3
20240526165800 85 248 1.0 4.0 0.00 0.00 0.00 17 1015.4
20240526165043 83 249 1.0 4.0 0.00 0.00 0.00 18 1015.4
20240526164756 82 13 2.0 5.0 0.00 0.00 0.00 18 1015.4
20240526164036 82 25 2.0 5.0 0.00 0.00 0.00 18 1015.4
20240526163532 82 320 2.0 4.0 0.00 0.00 0.00 18 1015.4
20240526163033 82 348 1.0 3.0 0.00 0.00 0.00 18 1015.5
20240526162536 82 302 1.0 3.0 0.00 0.00 0.00 18 1015.5
20240526162039 82 354 1.0 4.0 0.00 0.00 0.00 18 1015.4
20240526161532 81 323 1.0 4.0 0.00 0.00 0.00 18 1015.5
20240526161031 81 281 1.0 5.0 0.00 0.00 0.00 19 1015.7
20240526160532 81 249 1.0 5.0 0.00 0.00 0.00 19 1015.7
20240526160038 80 271 1.0 3.0 0.00 0.00 0.00 19 1015.5
20240526155532 80 261 1.0 4.0 0.00 0.00 0.00 19 1015.7
20240526155031 81 309 1.0 4.0 0.00 0.00 0.00 18 1015.7
20240526154532 81 238 1.0 4.0 0.00 0.00 0.00 19 1015.8
20240526154030 80 184 1.0 4.0 0.00 0.00 0.00 19 1015.8
20240526153531 79 278 1.0 2.0 0.00 0.00 0.00 19 1015.7
20240526153032 79 204 0.0 2.0 0.00 0.00 0.00 21 1015.7
20240526152949 79 260 0.0 1.0 0.00 0.00 0.00 20 1015.5
20240526152032 78 226 0.0 2.0 0.00 0.00 0.00 21 1015.5
20240526151531 77 272 1.0 4.0 0.00 0.00 0.00 21 1015.5
20240526151035 77 270 1.0 4.0 0.00 0.00 0.00 22 1015.5
20240526150531 76 217 1.0 3.0 0.00 0.00 0.00 22 1015.5
20240526150029 76 213 1.0 3.0 0.00 0.00 0.00 23 1015.5
20240526145754 75 207 1.0 3.0 0.00 0.00 0.00 23 1015.4
20240526145029 75 220 1.0 2.0 0.00 0.00 0.00 24 1015.4
20240526144530 74 240 1.0 4.0 0.00 0.00 0.00 25 1015.4
20240526144024 73 113 2.0 5.0 0.00 0.00 0.00 26 1015.4
20240526143524 72 229 1.0 5.0 0.00 0.00 0.00 26 1015.4
20240526143024 72 218 1.0 3.0 0.00 0.00 0.00 27 1015.4
20240526142525 71 234 1.0 3.0 0.00 0.00 0.00 27 1015.3
20240526142025 70 230 1.0 3.0 0.00 0.00 0.00 28 1015.3
20240526141526 70 260 1.0 3.0 0.00 0.00 0.00 28 1015.3
20240526141025 70 229 0.0 3.0 0.00 0.00 0.00 28 1015.3
20240526140525 69 138 0.0 2.0 0.00 0.00 0.00 29 1015.3
20240526140511 68 223 0.0 2.0 0.00 0.00 0.00 30 1015.2
20240526135525 67 226 0.0 2.0 0.00 0.00 0.00 30 1015.2
20240526135028 67 230 0.0 0.0 0.00 0.00 0.00 31 1015.3
20240526134753 67 230 0.0 0.0 0.00 0.00 0.00 32 1015.2
20240526134245 66 230 0.0 0.0 0.00 0.00 0.00 32 1015.1
20240526133527 66 143 0.0 0.0 0.00 0.00 0.00 32 1015.1
20240526133030 65 143 0.0 0.0 0.00 0.00 0.00 32 1015.0
20240526132749 65 126 0.0 0.0 0.00 0.00 0.00 32 1015.0
20240526132301 64 125 0.0 0.0 0.00 0.00 0.00 33 1014.9
20240526131754 64 126 0.0 0.0 0.00 0.00 0.00 33 1014.9
20240526131304 63 126 0.0 0.0 0.00 0.00 0.00 34 1014.8
20240526131204 61 125 0.0 0.0 0.00 0.00 0.00 35 1014.8
20240526130026 60 125 0.0 0.0 0.00 0.00 0.00 35 1014.7
20240526125525 60 125 0.0 0.0 0.00 0.00 0.00 36 1014.6
20240526125021 59 117 0.0 0.0 0.00 0.00 0.00 38 1014.6
20240526124743 58 117 0.0 0.0 0.00 0.00 0.00 38 1014.5
20240526124021 58 117 0.0 0.0 0.00 0.00 0.00 38 1014.5
20240526123521 58 117 0.0 0.0 0.00 0.00 0.00 38 1014.5
20240526123021 58 117 0.0 0.0 0.00 0.00 0.00 39 1014.4
20240526122521 58 117 0.0 0.0 0.00 0.00 0.00 40 1014.2
20240526122022 58 117 0.0 0.0 0.00 0.00 0.00 38 1014.2
20240526121521 58 117 0.0 0.0 0.00 0.00 0.00 37 1014.1
20240526121020 59 117 0.0 0.0 0.00 0.00 0.00 36 1014.1
20240526120520 59 117 0.0 0.0 0.00 0.00 0.00 35 1014.0
20240526120015 59 117 0.0 0.0 0.00 0.00 0.00 35 1014.0
20240526115728 60 117 0.0 0.0 0.00 0.00 0.00 35 1014.0
20240526115002 59 117 0.0 0.0 0.00 0.00 0.00 36 1014.0
20240526114504 60 117 0.0 0.0 0.00 0.00 0.00 35 1013.9
20240526114000 60 117 0.0 0.0 0.00 0.00 0.00 35 1013.9
20240526113500 60 117 0.0 0.0 0.00 0.00 0.00 35 1013.9
20240526112959 60 117 0.0 0.0 0.00 0.00 0.00 36 1013.9
20240526112501 60 117 0.0 0.0 0.00 0.00 0.00 36 1013.8
20240526112001 60 70 0.0 0.0 0.00 0.00 0.00 34 1013.8
20240526111503 61 70 0.0 0.0 0.00 0.00 0.00 33 1013.7
20240526110954 61 70 0.0 0.0 0.00 0.00 0.00 32 1013.7
20240526110452 62 70 0.0 0.0 0.00 0.00 0.00 31 1013.7
20240526110211 62 70 0.0 0.0 0.00 0.00 0.00 31 1013.7
20240526105449 62 47 0.0 0.0 0.00 0.00 0.00 31 1013.6
20240526104945 63 15 0.0 1.0 0.00 0.00 0.00 31 1013.5
20240526104718 64 6 0.0 3.0 0.00 0.00 0.00 30 1013.6
20240526103940 64 132 1.0 3.0 0.00 0.00 0.00 29 1013.6
20240526103441 64 162 1.0 3.0 0.00 0.00 0.00 29 1013.5
20240526102944 64 155 0.0 2.0 0.00 0.00 0.00 29 1013.6
20240526102438 64 236 0.0 2.0 0.00 0.00 0.00 29 1013.6
20240526101931 64 160 0.0 2.0 0.00 0.00 0.00 29 1013.6
20240526101652 64 140 0.0 1.0 0.00 0.00 0.00 29 1013.6
20240526100915 64 147 0.0 1.0 0.00 0.00 0.00 28 1013.6
20240526100410 64 158 0.0 1.0 0.00 0.00 0.00 28 1013.6
20240526100124 64 135 0.0 2.0 0.00 0.00 0.00 28 1013.6
20240526095616 64 139 1.0 2.0 0.00 0.00 0.00 28 1013.6
20240526095106 64 148 0.0 2.0 0.00 0.00 0.00 28 1013.6
20240526094338 64 149 0.0 2.0 0.00 0.00 0.00 28 1013.6
20240526093911 65 106 0.0 2.0 0.00 0.00 0.00 28 1013.6
20240526092816 65 86 0.0 0.0 0.00 0.00 0.00 28 1013.6
20240526092310 65 83 0.0 0.0 0.00 0.00 0.00 28 1013.6
20240526092026 65 83 0.0 0.0 0.00 0.00 0.00 27 1013.6
20240526091253 66 72 0.0 0.0 0.00 0.00 0.00 27 1013.5
20240526090748 66 72 0.0 0.0 0.00 0.00 0.00 26 1013.5
20240526090242 66 72 0.0 1.0 0.00 0.00 0.00 26 1013.5
20240526085958 66 27 0.0 1.0 0.00 0.00 0.00 27 1013.5
20240526085712 66 27 0.0 1.0 0.00 0.00 0.00 27 1013.5
20240526084720 66 27 0.0 1.0 0.00 0.00 0.00 27 1013.4
20240526084440 66 27 0.0 2.0 0.00 0.00 0.00 26 1013.3
20240526083923 67 27 0.0 2.0 0.00 0.00 0.00 26 1013.4
20240526083158 68 345 0.0 1.0 0.00 0.00 0.00 25 1013.3
20240526082653 68 205 1.0 3.0 0.00 0.00 0.00 24 1013.3
20240526082142 68 165 1.0 4.0 0.00 0.00 0.00 24 1013.3
20240526081636 68 99 1.0 4.0 0.00 0.00 0.00 24 1013.3
20240526081126 69 155 1.0 4.0 0.00 0.00 0.00 24 1013.2
20240526080712 69 216 1.0 4.0 0.00 0.00 0.00 24 1013.2
20240526075602 69 169 1.0 3.0 0.00 0.00 0.00 24 1013.2
20240526075058 69 164 1.0 3.0 0.00 0.00 0.00 24 1013.1
20240526074552 69 172 1.0 4.0 0.00 0.00 0.00 24 1013.2
20240526074042 69 193 2.0 6.0 0.00 0.00 0.00 23 1013.2
20240526074021 69 174 3.0 6.0 0.00 0.00 0.00 23 1013.3
20240526073030 69 94 3.0 6.0 0.00 0.00 0.00 24 1013.3
20240526072522 69 147 3.0 6.0 0.00 0.00 0.00 24 1013.2
20240526072014 69 150 2.0 5.0 0.00 0.00 0.00 24 1013.2
20240526071508 70 198 1.0 5.0 0.00 0.00 0.00 23 1013.2
20240526071225 70 108 1.0 3.0 0.00 0.00 0.00 23 1013.1
20240526070708 70 238 1.0 3.0 0.00 0.00 0.00 23 1013.2
20240526065946 70 223 1.0 3.0 0.00 0.00 0.00 23 1013.2
20240526065436 70 237 1.0 3.0 0.00 0.00 0.00 23 1013.1
20240526064930 70 153 1.0 3.0 0.00 0.00 0.00 23 1013.2
20240526064424 71 141 1.0 3.0 0.00 0.00 0.00 23 1013.1